Weather History for KMAF - August, 2013

Change the Weather History Date:

Tuesday, August 20, 2013

  Actual Average Record
Temperature  
Mean Temperature 85 °F 81 °F  
Max Temperature 95 °F 94 °F 105 °F (1986)
Min Temperature 74 °F 69 °F 58 °F (1940)
Cooling Degree Days 20 16  
Month to date cooling degree days 411 336  
Year to date cooling degree days 1981 1718  
Since 1 June cooling degree days 1493 1329  
Growing Degree Days 35 (Base 50)    
Moisture  
Dew Point 55 °F    
Average Humidity 39    
Maximum Humidity 50    
Minimum Humidity 28    
Precipitation  
Precipitation 0.00 in 0.06 in 1.13 in (1946)
Month to date precipitation 1.17 1.12  
Year to date precipitation 4.56 9.00  
Sea Level Pressure  
Sea Level Pressure 29.88 in    
Wind  
Wind Speed 11 mph (SSE)    
Max Wind Speed 21 mph    
Max Gust Speed 25 mph    
Visibility 10 miles    
Events      
T = Trace of Precipitation, MM = Missing Value Source: NWS Daily Summary

Daily Weather History Graph

Daily Weather History Graph

Search for Another Location

Airport or City:

Trip Planner

Search our weather history database for the weather conditions in past years. The results will help you decide how hot, cold, wet, or windy it might be!

Date:

Astronomy

Aug. 20, 2013 Rise Set
Actual Time 7:16 AM CDT 8:26 PM CDT
Civil Twilight 6:51 AM CDT 8:52 PM CDT
Nautical Twilight 6:21 AM CDT 9:22 PM CDT
Astronomical Twilight 5:49 AM CDT 9:53 PM CDT
Moon 8:03 PM CDT (8/20) 6:47 AM CDT (8/20)
Length of Visible Light 14h 00m
Length of Day
13h 09m
Full, 100% of the Moon is Illuminated
Aug 20
Full
Aug 20
Full
Aug 28
Last Quarter
Sep 5
New
Sep 12
First Quarter

Hourly Weather History & Observations

Time (CDT) Temp. Heat Index Dew Point Humidity Pressure Visibility Wind Dir Wind Speed Gust Speed Precip Events Conditions
12:53 AM 84.0 °F 82.9 °F 55.0 °F 37% 29.85 in 10.0 mi South 12.7 mph - N/A   Clear
1:53 AM 81.0 °F 80.7 °F 55.0 °F 41% 29.86 in 10.0 mi SSW 9.2 mph - N/A   Clear
2:53 AM 79.0 °F - 55.0 °F 44% 29.86 in 10.0 mi SW 6.9 mph - N/A   Clear
3:53 AM 78.1 °F - 55.0 °F 45% 29.86 in 10.0 mi SSW 9.2 mph - N/A   Clear
4:53 AM 78.1 °F - 55.0 °F 45% 29.86 in 10.0 mi SSW 8.1 mph - N/A   Clear
5:53 AM 77.0 °F - 55.0 °F 47% 29.87 in 10.0 mi South 9.2 mph - N/A   Clear
6:53 AM 75.9 °F - 55.0 °F 48% 29.88 in 10.0 mi South 6.9 mph - N/A   Partly Cloudy
7:53 AM 75.0 °F - 55.9 °F 51% 29.90 in 10.0 mi SSE 8.1 mph - N/A   Clear
8:53 AM 77.0 °F - 55.9 °F 48% 29.91 in 10.0 mi SSE 11.5 mph - N/A   Clear
9:53 AM 79.0 °F - 55.9 °F 45% 29.92 in 10.0 mi South 13.8 mph - N/A   Clear
10:53 AM 82.9 °F 82.1 °F 55.9 °F 39% 29.93 in 10.0 mi South 13.8 mph - N/A   Clear
11:53 AM 87.1 °F 85.3 °F 55.0 °F 33% 29.92 in 10.0 mi South 10.4 mph 24.2 mph N/A   Clear
12:53 PM 90.0 °F 87.7 °F 54.0 °F 29% 29.91 in 10.0 mi South 9.2 mph 20.7 mph N/A   Partly Cloudy
1:53 PM 93.0 °F 91.1 °F 55.0 °F 28% 29.89 in 10.0 mi South 12.7 mph - N/A   Clear
2:53 PM 93.9 °F 92.0 °F 55.0 °F 27% 29.88 in 10.0 mi SSE 16.1 mph 23.0 mph N/A   Clear
3:53 PM 93.0 °F 91.1 °F 55.0 °F 28% 29.87 in 10.0 mi South 12.7 mph 19.6 mph N/A   Mostly Cloudy
4:53 PM 93.0 °F 91.1 °F 55.0 °F 28% 29.86 in 10.0 mi South 13.8 mph 19.6 mph N/A   Scattered Clouds
5:53 PM 93.9 °F 92.2 °F 55.9 °F 28% 29.85 in 10.0 mi SSE 12.7 mph 23.0 mph N/A   Scattered Clouds
6:53 PM 93.0 °F 91.4 °F 55.9 °F 29% 29.84 in 10.0 mi SSE 12.7 mph - N/A   Partly Cloudy
7:53 PM 91.0 °F 89.2 °F 55.9 °F 30% 29.85 in 10.0 mi SE 13.8 mph 20.7 mph N/A   Partly Cloudy
8:53 PM 88.0 °F 86.5 °F 55.9 °F 34% 29.86 in 10.0 mi SE 9.2 mph - N/A   Clear
9:53 PM 86.0 °F 84.5 °F 55.0 °F 35% 29.88 in 10.0 mi SE 8.1 mph - N/A   Partly Cloudy
10:53 PM 84.0 °F 82.6 °F 54.0 °F 35% 29.90 in 10.0 mi SE 13.8 mph - N/A   Clear
11:53 PM 82.0 °F 81.3 °F 54.0 °F 38% 29.91 in 10.0 mi ESE 13.8 mph - N/A   Clear